When you browse on this site, cookies collect data to enhance your experience and personalize the content and advertising you see.
Visit our Privacy Policy to learn more. By continuing to use the site, you agree to this use of cookies and data.
  • In Hungary
  • List of Countries
  • For 7 days
  • Water Temperature
  • Weather Map
  • News
  • Weather Widgets
  • user-avatar
    Login

    Hourly Weather Beverly

    Today, 4 June, Thursday

    Time Temperature Precipitation Wind Pressure Humidity
    00:00 +7°C° 0 mm 4 mps 755 mmHg 94%
    01:00 +7°C° 0.1 mm 5 mps 755 mmHg 92%
    02:00 +7°C° 0.1 mm 5 mps 754 mmHg 89%
    03:00 +8°C° 0.1 mm 5 mps 753 mmHg 86%
    04:00 +8°C° 0 mm 5 mps 753 mmHg 83%
    05:00 +8°C° 0 mm 6 mps 753 mmHg 81%
    06:00 +8°C° 0 mm 5 mps 753 mmHg 77%
    07:00 +9°C° 0 mm 5 mps 752 mmHg 72%
    08:00 +10°C° 0 mm 5 mps 752 mmHg 68%
    09:00 +12°C° 0 mm 5 mps 752 mmHg 63%
    10:00 +12°C° 0 mm 5 mps 751 mmHg 63%
    11:00 +13°C° 0 mm 4 mps 751 mmHg 63%
    12:00 +13°C° 0 mm 4 mps 751 mmHg 64%
    13:00 +13°C° 0.2 mm 3 mps 750 mmHg 65%
    14:00 +13°C° 0.2 mm 3 mps 750 mmHg 67%
    15:00 +14°C° 0.2 mm 2 mps 749 mmHg 68%
    16:00 +13°C° 0.4 mm 2 mps 749 mmHg 74%
    17:00 +12°C° 0.4 mm 2 mps 748 mmHg 80%
    18:00 +10°C° 0.4 mm 2 mps 748 mmHg 86%
    19:00 +9°C° 1.3 mm 2 mps 748 mmHg 89%
    20:00 +9°C° 1.3 mm 2 mps 748 mmHg 92%
    21:00 +8°C° 1.3 mm 2 mps 747 mmHg 95%
    22:00 +8°C° 1.1 mm 2 mps 747 mmHg 94%
    23:00 +9°C° 1.1 mm 1 mps 746 mmHg 94%

    Tomorrow, 5 June, Friday

    Time Temperature Precipitation Wind Pressure Humidity
    00:00 +9°C° 1.1 mm 1 mps 746 mmHg 93%
    01:00 +8°C° 0.2 mm 2 mps 746 mmHg 93%
    02:00 +8°C° 0.2 mm 3 mps 745 mmHg 93%
    03:00 +7°C° 0.2 mm 3 mps 745 mmHg 93%
    04:00 +7°C° 0.2 mm 4 mps 745 mmHg 91%
    05:00 +7°C° 0.2 mm 4 mps 745 mmHg 90%
    06:00 +7°C° 0.2 mm 5 mps 744 mmHg 88%
    07:00 +7°C° 0.1 mm 5 mps 744 mmHg 85%
    08:00 +7°C° 0.1 mm 5 mps 744 mmHg 82%
    09:00 +8°C° 0.1 mm 6 mps 744 mmHg 79%
    10:00 +9°C° 0.3 mm 6 mps 744 mmHg 74%
    11:00 +10°C° 0.3 mm 6 mps 744 mmHg 68%
    12:00 +11°C° 0.3 mm 6 mps 744 mmHg 63%
    13:00 +11°C° 0.6 mm 6 mps 744 mmHg 66%
    14:00 +11°C° 0.6 mm 6 mps 744 mmHg 69%
    15:00 +11°C° 0.6 mm 7 mps 743 mmHg 72%
    16:00 +10°C° 0.4 mm 7 mps 743 mmHg 73%
    17:00 +10°C° 0.4 mm 7 mps 743 mmHg 75%
    18:00 +10°C° 0.4 mm 7 mps 742 mmHg 76%
    19:00 +8°C° 0 mm 7 mps 742 mmHg 75%
    20:00 +6°C° 0 mm 8 mps 742 mmHg 74%
    21:00 +5°C° 0 mm 8 mps 742 mmHg 73%
    22:00 +5°C° 0.2 mm 8 mps 741 mmHg 75%
    23:00 +5°C° 0.2 mm 9 mps 740 mmHg 78%

    Day after tomorrow, 6 June, Saturday

    Time Temperature Precipitation Wind Pressure Humidity
    00:00 +6°C° 0.2 mm 10 mps 740 mmHg 81%
    01:00 +6°C° 1 mm 9 mps 739 mmHg 85%
    02:00 +6°C° 1 mm 9 mps 738 mmHg 88%
    03:00 +6°C° 1 mm 9 mps 738 mmHg 92%
    04:00 +7°C° 0.2 mm 9 mps 737 mmHg 91%
    05:00 +7°C° 0.2 mm 10 mps 737 mmHg 90%
    06:00 +7°C° 0.2 mm 10 mps 737 mmHg 89%
    07:00 +7°C° 0.4 mm 11 mps 738 mmHg 88%
    08:00 +8°C° 0.4 mm 11 mps 739 mmHg 88%
    09:00 +8°C° 0.4 mm 12 mps 739 mmHg 87%
    10:00 +9°C° 0.4 mm 11 mps 740 mmHg 83%
    11:00 +11°C° 0.4 mm 11 mps 741 mmHg 79%
    12:00 +12°C° 0.4 mm 10 mps 742 mmHg 75%
    13:00 +12°C° 0.4 mm 9 mps 742 mmHg 74%
    14:00 +13°C° 0.4 mm 9 mps 743 mmHg 72%
    15:00 +13°C° 0.4 mm 8 mps 744 mmHg 71%
    16:00 +14°C° 0.1 mm 7 mps 745 mmHg 71%
    17:00 +14°C° 0.1 mm 7 mps 746 mmHg 71%
    18:00 +13°C° 0.1 mm 6 mps 746 mmHg 71%
    19:00 +12°C° 0 mm 5 mps 747 mmHg 78%
    20:00 +11°C° 0 mm 4 mps 748 mmHg 84%
    21:00 +9°C° 0 mm 3 mps 749 mmHg 90%
    22:00 +9°C° 0 mm 3 mps 749 mmHg 91%
    23:00 +9°C° 0 mm 3 mps 749 mmHg 91%

    7 June, Sunday

    Time Temperature Precipitation Wind Pressure Humidity
    00:00 +9°C° 0 mm 3 mps 749 mmHg 92%
    01:00 +9°C° 0 mm 3 mps 749 mmHg 92%
    02:00 +8°C° 0 mm 4 mps 749 mmHg 91%
    03:00 +9°C° 0 mm 5 mps 749 mmHg 91%
    04:00 +9°C° 0.2 mm 5 mps 749 mmHg 91%
    05:00 +9°C° 0.2 mm 5 mps 750 mmHg 91%
    06:00 +10°C° 0.2 mm 5 mps 750 mmHg 91%
    07:00 +10°C° 0.1 mm 5 mps 750 mmHg 90%
    08:00 +10°C° 0.1 mm 6 mps 751 mmHg 89%
    09:00 +10°C° 0.1 mm 6 mps 751 mmHg 88%
    10:00 +10°C° 0.4 mm 6 mps 752 mmHg 90%
    11:00 +10°C° 0.4 mm 6 mps 752 mmHg 91%
    12:00 +10°C° 0.4 mm 6 mps 753 mmHg 92%
    13:00 +10°C° 0.4 mm 6 mps 753 mmHg 92%
    14:00 +10°C° 0.4 mm 6 mps 753 mmHg 92%
    15:00 +10°C° 0.4 mm 6 mps 754 mmHg 92%
    16:00 +9°C° 0.4 mm 6 mps 754 mmHg 92%
    17:00 +9°C° 0.4 mm 7 mps 755 mmHg 92%
    18:00 +9°C° 0.4 mm 7 mps 755 mmHg 93%
    19:00 +9°C° 0.2 mm 7 mps 756 mmHg 93%
    20:00 +9°C° 0.2 mm 7 mps 756 mmHg 93%
    21:00 +9°C° 0.2 mm 7 mps 757 mmHg 93%
    22:00 +9°C° 0.1 mm 7 mps 757 mmHg 93%
    23:00 +9°C° 0.1 mm 7 mps 757 mmHg 93%

    8 June, Monday

    Time Temperature Precipitation Wind Pressure Humidity
    00:00 +9°C° 0.1 mm 6 mps 757 mmHg 93%
    01:00 +8°C° 0.1 mm 6 mps 757 mmHg 93%
    02:00 +8°C° 0.1 mm 6 mps 758 mmHg 93%
    03:00 +8°C° 0.1 mm 6 mps 758 mmHg 93%
    04:00 +8°C° 0.1 mm 7 mps 758 mmHg 92%
    05:00 +9°C° 0.1 mm 7 mps 759 mmHg 91%
    06:00 +9°C° 0.1 mm 8 mps 759 mmHg 90%
    07:00 +9°C° 0.2 mm 8 mps 759 mmHg 89%
    08:00 +9°C° 0.2 mm 8 mps 760 mmHg 89%
    09:00 +9°C° 0.2 mm 8 mps 760 mmHg 89%
    10:00 +9°C° 0.2 mm 8 mps 760 mmHg 89%
    11:00 +9°C° 0.2 mm 8 mps 760 mmHg 89%
    12:00 +10°C° 0.2 mm 7 mps 761 mmHg 90%
    13:00 +10°C° 0.1 mm 7 mps 761 mmHg 89%
    14:00 +10°C° 0.1 mm 7 mps 761 mmHg 88%
    15:00 +10°C° 0.1 mm 7 mps 761 mmHg 87%
    16:00 +10°C° 0 mm 7 mps 762 mmHg 86%
    17:00 +10°C° 0 mm 7 mps 762 mmHg 85%
    18:00 +10°C° 0 mm 7 mps 762 mmHg 84%
    19:00 +10°C° 0 mm 6 mps 763 mmHg 84%
    20:00 +10°C° 0 mm 6 mps 763 mmHg 83%
    21:00 +9°C° 0 mm 5 mps 763 mmHg 82%
    22:00 +9°C° 0 mm 5 mps 763 mmHg 82%
    23:00 +9°C° 0 mm 5 mps 764 mmHg 81%

    9 June, Tuesday

    Time Temperature Precipitation Wind Pressure Humidity
    00:00 +9°C° 0 mm 5 mps 764 mmHg 81%
    01:00 +8°C° 0 mm 4 mps 764 mmHg 81%
    02:00 +8°C° 0 mm 4 mps 764 mmHg 82%
    03:00 +8°C° 0 mm 4 mps 764 mmHg 83%
    04:00 +8°C° 0 mm 4 mps 764 mmHg 83%
    05:00 +8°C° 0 mm 4 mps 764 mmHg 84%
    06:00 +10°C° 0 mm 4 mps 764 mmHg 84%
    07:00 +10°C° 0.1 mm 4 mps 764 mmHg 84%
    08:00 +11°C° 0.1 mm 4 mps 764 mmHg 84%
    09:00 +12°C° 0.1 mm 4 mps 765 mmHg 83%
    10:00 +12°C° 0 mm 4 mps 765 mmHg 81%
    11:00 +12°C° 0 mm 4 mps 765 mmHg 79%
    12:00 +13°C° 0 mm 4 mps 765 mmHg 77%
    13:00 +13°C° 0 mm 4 mps 765 mmHg 75%
    14:00 +14°C° 0 mm 4 mps 765 mmHg 73%
    15:00 +14°C° 0 mm 4 mps 765 mmHg 71%
    16:00 +13°C° 0 mm 4 mps 765 mmHg 73%
    17:00 +13°C° 0 mm 4 mps 765 mmHg 75%
    18:00 +12°C° 0 mm 4 mps 765 mmHg 77%
    19:00 +11°C° 0 mm 3 mps 765 mmHg 81%
    20:00 +9°C° 0 mm 3 mps 766 mmHg 84%
    21:00 +8°C° 0 mm 2 mps 766 mmHg 87%
    22:00 +8°C° 0 mm 2 mps 766 mmHg 87%
    23:00 +7°C° 0 mm 2 mps 766 mmHg 88%
    Show more